Regional Weather Roundup
Issued by NWS

Home | Current Version | Previous Version | Text Only | Print | Product List | Glossary Off
Versions: 1 2 3 4 5 6 7 8 9 10 11 12 13 14 15 16 17 18 19 20 21 22 23 24 25 26 27

000
ASUS45 KSLC 051710
RWRUT

UTAH REGIONAL WEATHER ROUNDUP
NATIONAL WEATHER SERVICE SALT LAKE CITY UT
1000 AM MST MON DEC 05 2016

UTZ001>011-023>025-051800-

NORTHERN UTAH

CITY           SKY/WX    TMP DP  RH WIND       PRES   REMARKS
BRIGHAM CITY     N/A     28   8  42 N7        30.08R WCI  21
HILL AFB         N/A     26   5  40 N6        30.04R WCI  19
LOGAN            N/A    N/A N/A N/A N7        30.05R
OGDEN          NOT AVBL
SALT LAKE CITY PTSUNNY   31  15  52 N15       30.06R WCI  20
TOOELE VALLEY  CLOUDY    32  12  43 N13       30.07R WCI  22
WENDOVER         N/A     30   3  31 NE3       30.09R
HEBER CITY     CLOUDY    28   7  40 N15G21    29.92R WCI  17

$$

UTZ011>015-024>027-051800-

CENTRAL/NORTHEAST UTAH

CITY           SKY/WX    TMP DP  RH WIND       PRES   REMARKS
PROVO AIRPORT  PTSUNNY   34  14  44 NW14      30.04R WCI  24
MOAB/CANYONLAN   N/A     32  20  61 NW6       29.88R WCI  26
DELTA          PTSUNNY   32   5  32 N14G21    30.05R WCI  22
PRICE          NOT AVBL
RICHFIELD      CLOUDY    37  23  56 NE10      30.02  WCI  30
VERNAL         NOT AVBL

$$

UTZ013>016-019>022-027-051800-

SOUTHERN UTAH

CITY           SKY/WX    TMP DP  RH WIND       PRES   REMARKS
BRYCE CANYON   NOT AVBL
CEDAR CITY     NOT AVBL
MILFORD          N/A     36  19  50 N28G33    30.00R WCI  23
ST GEORGE        N/A     37  19  48 S3        29.99S
HANKSVILLE       N/A     30  18  59 CALM      29.93R
BLANDING         N/A     36  20  53 SE5       29.98S WCI  32

$$

REGIONAL REPORTS     COLORADO/ARIZONA

CITY           SKY/WX    TMP DP  RH WIND       PRES   REMARKS
CRAIG, CO      CLOUDY    28  15  58 W9        29.85  WCI  19
GRAND JUNCTION SUNNY     33  21  61 SW3       29.86
RIFLE, CO      CLOUDY    31  20  63 VRB3      29.84
MONTROSE, CO   CLOUDY    37  20  50 NW6       29.87  WCI  32
CORTEZ, CO     SUNNY     38  25  59 CALM      29.91
COLORADO CITY    N/A     43  25  49 CALM      29.98R
PAGE, AZ         N/A     40  12  32 CALM      29.92R
GRAND CANYON     N/A     40  18  41 SW12      29.97S WCI  33
KINGMAN, AZ    NOT AVBL
FLAGSTAFF, AZ    N/A     39  14  36 SW10      30.00R WCI  32

$$

REGIONAL REPORTS    NEVADA/IDAHO/WYOMING

CITY           SKY/WX    TMP DP  RH WIND       PRES   REMARKS
LAS VEGAS, NV  PTSUNNY   49  16  26 NE3       29.95R
ELY, NY        NOT AVBL
ELKO, NV       CLOUDY    28  12  51 SW5       30.07R WCI  23
POCATELLO, ID  NOT AVBL
FORT BRIDGER,    N/A     18   2  49 SW12      29.94R WCI   5
EVANSTON, WY   NOT AVBL
ROCK SPRINGS,  NOT AVBL

$$




USA.gov is the U.S. government's official web portal to all federal, state and local government web resources and services.